Regional Weather Roundup
Issued by NWS

Home | Current Version | Previous Version | Graphics & Text | Print | Product List | Glossary On
Versions: 1 2 3 4 5 6 7 8 9 10 11 12 13 14 15 16 17 18 19 20 21 22 23 24 25 26 27
000
ASUS45 KBOU 221310
RWRCO

WEATHER ROUNDUP FOR COLORADO
NATIONAL WEATHER SERVICE DENVER/BOULDER CO
600 AM MST WED NOV 22 2017

NOTE: "FAIR" INDICATES FEW OR NO CLOUDS BELOW 12000 FEET WITH NO
SIGNIFICANT WEATHER AND/OR OBSTRUCTIONS TO VISIBILITY.

COZ001>005-013-030-031-221400-
...NORTHWEST COLORADO...

CITY           SKY/WX    TMP DP  RH WIND       PRES   REMARKS
CRAIG          CLOUDY    33  31  92 CALM      30.45R
HAYDEN         CLOUDY    33  31  92 SE6       30.46R WCI  28
MEEKER         FAIR      32  30  92 NW5       30.47R WCI  27
RABBIT EARS PA FOG      N/A N/A N/A W8        30.51R VSB 3/4
STEAMBOAT SPGS CLOUDY    33  33  99 CALM      30.46R
WALDEN         CLOUDY    37  30  75 SW10      30.44R
$$

COZ006>008-011-221400-
...WEST CENTRAL VALLEYS...

CITY           SKY/WX    TMP DP  RH WIND       PRES   REMARKS
GRAND JUNCTION FAIR      36  29  75 CALM      30.43R
MONTROSE       FAIR      30  26  85 SE5       30.48S WCI  25
EAGLE          MOCLDY    29  28  96 CALM      30.51R
RIFLE          FAIR      30  29  96 CALM      30.48R
DELTA          FAIR      32  25  75 CALM      30.46S
NUCLA          FAIR      30  25  80 CALM      30.48F
$$

COZ017>023-064>068-221400-
...SOUTHWEST COLORADO...

CITY           SKY/WX    TMP DP  RH WIND       PRES   REMARKS
DURANGO        FAIR      23  18  81 E9        30.42R WCI  13
CORTEZ         FAIR      31  24  75 NE8       30.41S WCI  23
PAGOSA SPRINGS FAIR      29  21  71 CALM      30.44S
TELLURIDE      FAIR      33  22  62 SE7       30.53F WCI  27
WOLF CREEK PAS FAIR      32  10  40 NW6       30.63R WCI  26
$$

COZ009-010-012-014-032>034-037-058>063-221400-
...CENTRAL COLORADO...

CITY           SKY/WX    TMP DP  RH WIND       PRES   REMARKS
ASPEN          FAIR      31  25  78 S7        30.46S WCI  24
BUENA VISTA    FAIR      32  23  71 CALM      30.42S
COPPER MTN     MOCLDY    30  27  86 MISG      30.55S
BERTHOUD PASS  CLOUDY    21  10  63 N22G43    30.50R WCI   5
COTTONWOOD PAS FAIR      41  25  52 W5        30.45R
GUNNISON       FAIR      20  19  96 S3        30.50F
KREMMLING      CLOUDY    36  32  87 W5        30.48R
LEADVILLE      FAIR      27  21  78 CALM      30.48S
MONARCH PASS   MOCLDY    23  21  93 SW25      30.62S WCI   7
SALIDA         FAIR      42  26  52 NW13      30.47S
SUNLIGHT       FAIR      30  27  86 SW8       30.58R WCI  23
WILKERSON PASS FAIR      34  18  51 NW12G22   30.49S WCI  25
$$

COZ069>075-221400-
...SAN LUIS VALLEY/SANGRE DE CRISTO MOUNTAINS...

CITY           SKY/WX    TMP DP  RH WIND       PRES   REMARKS
ALAMOSA        FAIR      27  20  75 CALM      30.45R
DEL NORTE      FAIR      32  17  54 CALM      30.45F
LA VETA PASS   FAIR      30  23  74 SW22        N/A  WCI  17
SAGUACHE       FAIR      34  27  75 N10       30.45F WCI  26
$$

COZ035-036-038>040-221400-
...NORTHERN COLORADO FRONT RANGE...

CITY           SKY/WX    TMP DP  RH WIND       PRES   REMARKS
DENVER INTL AP MOCLDY    35  27  72 S13       30.22F WCI  26
DMNS CITY PARK   N/A     38  28  68 SE17      30.24R
AURORA         NOT AVBL
FRONT RANGE AP FAIR      37  31  77 S10       30.23F
ERIE MUNI ARPT FAIR      31  30  94 S3        30.27F
BOULDER MUN AP FAIR      34  32  93 SW3       30.21F
CENTENNIAL     FAIR      36  27  69 SE8       30.25S
BROOMFIELD     MOCLDY    36  32  87 S3        30.23F
FORT COLLINS   FAIR      33  32  96 CALM      30.23F
LONGMONT       FAIR      34  32  92 CALM      30.23F
$$

COZ041-046-047-076>085-087-088-221400-
...PIKES PEAK/PALMER DIVIDE AND SOUTHERN FOOTHILLS...

CITY           SKY/WX    TMP DP  RH WIND       PRES   REMARKS
COLO. SPRINGS  MOCLDY    37  26  64 N8        30.27F
A. F. ACADEMY  NOT AVBL
SCHRIEVER AFB  NOT AVBL
CHEYENNE MTN   NOT AVBL
ELLICOTT         N/A    N/A N/A N/A E3        30.26S
FALCON         FAIR      35  23  60 NW5       30.30S WCI  31
FORT CARSON    NOT AVBL
LIMON          FAIR      26  25  96 N3        30.26S
MONUMENT HILL  FAIR      34  23  64 SW7       30.31S WCI  28
CANON CITY     FAIR      48  27  43 W13G23    30.25F
WALSENBURG     FAIR      50  28  43 W17G29    30.27F
TRINIDAD       FAIR      37  28  70 W16       30.30R
$$

COZ042>045-048>051-090-091-221400-
...NORTHEAST COLORADO...

CITY           SKY/WX    TMP DP  RH WIND       PRES   REMARKS
GREELEY ARPT   FAIR      28  26  92 CALM      30.23F
AKRON          FAIR      36  28  73 W17       30.21R
BURLINGTON     FAIR      41  29  62 W14       30.22F
WRAY           NOT AVBL
YUMA           FAIR      36  30  80 W8        30.20R
STERLING       FAIR      32  28  86 SW8       30.20F WCI  25
HOLYOKE        FAIR      36  32  87 W9        30.18S
FORT MORGAN    FAIR      30  26  86 W9        30.22F WCI  22
$$

COZ086-089-092>099-221400-
...SOUTHEAST COLORADO...

CITY           SKY/WX    TMP DP  RH WIND       PRES   REMARKS
PUEBLO         FAIR      30  26  85 CALM      30.26F
LA JUNTA       FAIR      28  24  85 W8        30.28R WCI  20
LAMAR          FAIR      21  17  84 SW3       30.27R
SPRINGFIELD      N/A     26  24  92 SW6       30.26S WCI  19
$$




USA.gov is the U.S. government's official web portal to all federal, state and local government web resources and services.